Time,TemperatureF,DewpointF,PressureIn,WindDirection,WindDirectionDegrees,WindSpeedMPH,WindSpeedGustMPH,Humidity,HourlyPrecipIn,Conditions,Clouds,dailyrainin,SoftwareType,DateUTC
2013-02-07 00:00:00,48.4,23.3,29.18,North,0,0.0,0.0,37,0.00,,,0.00,VWS V12.08,2013-02-07 05:00:00,
2013-02-07 00:04:00,48.4,23.3,29.18,North,0,0.0,0.0,37,0.00,,,0.00,VWS V12.08,2013-02-07 05:04:00,
2013-02-07 00:08:00,48.4,23.3,29.18,North,0,0.0,0.0,37,0.00,,,0.00,VWS V12.08,2013-02-07 05:08:00,
2013-02-07 00:11:00,48.4,23.3,29.18,North,0,0.0,0.0,37,0.00,,,0.00,VWS V12.08,2013-02-07 05:11:00,
2013-02-07 00:19:00,48.6,23.5,29.18,North,0,0.0,0.0,37,0.00,,,0.00,VWS V12.08,2013-02-07 05:19:00,
2013-02-07 00:26:00,48.4,23.3,29.15,North,0,0.0,0.0,37,0.00,,,0.00,VWS V12.08,2013-02-07 05:26:00,
2013-02-07 00:31:00,48.0,24.3,29.15,North,0,0.0,0.0,39,0.00,,,0.00,VWS V12.08,2013-02-07 05:31:00,
2013-02-07 00:36:00,47.8,24.1,29.15,North,0,0.0,0.0,39,0.00,,,0.00,VWS V12.08,2013-02-07 05:36:00,
2013-02-07 00:41:00,47.8,24.1,29.18,North,0,0.0,0.0,39,0.00,,,0.00,VWS V12.08,2013-02-07 05:41:00,
2013-02-07 00:46:00,47.8,24.1,29.18,North,0,0.0,0.0,39,0.00,,,0.00,VWS V12.08,2013-02-07 05:46:00,
2013-02-07 00:51:00,47.5,23.8,29.18,North,0,0.0,0.0,39,0.00,,,0.00,VWS V12.08,2013-02-07 05:51:00,
2013-02-07 00:56:00,47.3,23.6,29.15,North,0,0.0,0.0,39,0.00,,,0.00,VWS V12.08,2013-02-07 05:56:00,
2013-02-07 01:01:00,47.1,23.5,29.15,North,0,0.0,0.0,39,0.00,,,0.00,VWS V12.08,2013-02-07 06:01:00,
2013-02-07 01:06:00,47.1,23.5,29.15,North,0,0.0,0.0,39,0.00,,,0.00,VWS V12.08,2013-02-07 06:06:00,
2013-02-07 01:11:00,47.1,23.5,29.15,North,0,0.0,0.0,39,0.00,,,0.00,VWS V12.08,2013-02-07 06:11:00,
2013-02-07 01:16:00,47.1,23.5,29.15,North,0,0.0,0.0,39,0.00,,,0.00,VWS V12.08,2013-02-07 06:16:00,
2013-02-07 01:21:00,47.3,23.6,29.15,North,0,0.0,0.0,39,0.00,,,0.00,VWS V12.08,2013-02-07 06:21:00,
2013-02-07 01:26:00,46.9,23.3,29.15,North,0,0.0,0.0,39,0.00,,,0.00,VWS V12.08,2013-02-07 06:26:00,
2013-02-07 01:31:00,46.9,23.3,29.15,North,0,0.0,0.0,39,0.00,,,0.00,VWS V12.08,2013-02-07 06:31:00,
2013-02-07 01:36:00,47.1,23.5,29.15,North,0,0.0,0.0,39,0.00,,,0.00,VWS V12.08,2013-02-07 06:36:00,
2013-02-07 01:41:00,47.1,23.5,29.15,North,0,0.0,0.0,39,0.00,,,0.00,VWS V12.08,2013-02-07 06:41:00,
2013-02-07 01:46:00,46.9,23.3,29.15,North,0,0.0,0.0,39,0.00,,,0.00,VWS V12.08,2013-02-07 06:46:00,
2013-02-07 01:51:00,46.9,23.3,29.15,North,0,0.0,0.0,39,0.00,,,0.00,VWS V12.08,2013-02-07 06:51:00,
2013-02-07 01:56:00,46.8,23.1,29.15,North,0,0.0,0.0,39,0.00,,,0.00,VWS V12.08,2013-02-07 06:56:00,
2013-02-07 02:01:00,46.8,23.1,29.15,North,0,0.0,0.0,39,0.00,,,0.00,VWS V12.08,2013-02-07 07:01:00,
2013-02-07 02:06:00,46.8,23.1,29.15,North,0,0.0,0.0,39,0.00,,,0.00,VWS V12.08,2013-02-07 07:06:00,
2013-02-07 02:11:00,46.9,23.3,29.15,North,0,0.0,0.0,39,0.00,,,0.00,VWS V12.08,2013-02-07 07:11:00,
2013-02-07 02:16:00,46.9,23.3,29.15,North,0,0.0,0.0,39,0.00,,,0.00,VWS V12.08,2013-02-07 07:16:00,
2013-02-07 02:21:00,46.8,23.1,29.15,North,0,0.0,0.0,39,0.00,,,0.00,VWS V12.08,2013-02-07 07:21:00,
2013-02-07 02:26:00,46.9,23.3,29.18,North,0,0.0,0.0,39,0.00,,,0.00,VWS V12.08,2013-02-07 07:26:00,
2013-02-07 02:31:00,46.9,23.3,29.18,North,0,0.0,0.0,39,0.00,,,0.00,VWS V12.08,2013-02-07 07:31:00,
2013-02-07 02:36:00,46.9,23.3,29.18,North,0,0.0,0.0,39,0.00,,,0.00,VWS V12.08,2013-02-07 07:36:00,
2013-02-07 02:41:00,46.8,23.1,29.18,North,0,0.0,0.0,39,0.00,,,0.00,VWS V12.08,2013-02-07 07:41:00,
2013-02-07 02:46:00,46.6,23.0,29.18,North,0,0.0,0.0,39,0.00,,,0.00,VWS V12.08,2013-02-07 07:46:00,
2013-02-07 02:51:00,46.4,22.8,29.18,North,0,0.0,0.0,39,0.00,,,0.00,VWS V12.08,2013-02-07 07:51:00,
2013-02-07 02:56:00,46.2,22.6,29.18,North,0,0.0,0.0,39,0.00,,,0.00,VWS V12.08,2013-02-07 07:56:00,
2013-02-07 03:01:00,46.2,22.6,29.18,North,0,0.0,0.0,39,0.00,,,0.00,VWS V12.08,2013-02-07 08:01:00,
2013-02-07 03:06:00,46.2,22.6,29.18,North,0,0.0,0.0,39,0.00,,,0.00,VWS V12.08,2013-02-07 08:06:00,
2013-02-07 03:11:00,46.2,22.6,29.18,North,0,0.0,0.0,39,0.00,,,0.00,VWS V12.08,2013-02-07 08:11:00,
2013-02-07 03:16:00,46.4,22.8,29.18,North,0,0.0,0.0,39,0.00,,,0.00,VWS V12.08,2013-02-07 08:16:00,
2013-02-07 03:21:00,46.6,23.0,29.18,North,0,0.0,0.0,39,0.00,,,0.00,VWS V12.08,2013-02-07 08:21:00,
2013-02-07 03:26:00,46.4,22.8,29.18,North,0,0.0,0.0,39,0.00,,,0.00,VWS V12.08,2013-02-07 08:26:00,
2013-02-07 03:31:00,46.6,23.0,29.18,North,0,0.0,0.0,39,0.00,,,0.00,VWS V12.08,2013-02-07 08:31:00,
2013-02-07 03:36:00,46.6,23.0,29.18,North,0,0.0,0.0,39,0.00,,,0.00,VWS V12.08,2013-02-07 08:36:00,
2013-02-07 03:41:00,46.4,22.8,29.18,North,0,0.0,0.0,39,0.00,,,0.00,VWS V12.08,2013-02-07 08:41:00,
2013-02-07 03:46:00,46.2,22.6,29.18,North,0,0.0,0.0,39,0.00,,,0.00,VWS V12.08,2013-02-07 08:46:00,
2013-02-07 03:51:00,46.2,22.6,29.18,North,0,0.0,0.0,39,0.00,,,0.00,VWS V12.08,2013-02-07 08:51:00,
2013-02-07 03:56:00,46.2,22.6,29.18,North,0,0.0,0.0,39,0.00,,,0.00,VWS V12.08,2013-02-07 08:56:00,
2013-02-07 04:01:00,46.2,22.6,29.18,North,0,0.0,0.0,39,0.00,,,0.00,VWS V12.08,2013-02-07 09:01:00,
2013-02-07 04:06:00,46.2,22.6,29.18,North,0,0.0,0.0,39,0.00,,,0.00,VWS V12.08,2013-02-07 09:06:00,
2013-02-07 04:11:00,46.2,22.6,29.18,North,0,0.0,0.0,39,0.00,,,0.00,VWS V12.08,2013-02-07 09:11:00,
2013-02-07 04:30:00,45.7,25.6,29.18,North,0,0.0,0.0,45,0.00,,,0.00,VWS V12.08,2013-02-07 09:30:00,
2013-02-07 05:01:00,45.5,25.4,29.15,North,0,0.0,0.0,45,0.00,,,0.00,VWS V12.08,2013-02-07 10:01:00,
2013-02-07 05:12:00,45.5,25.4,29.15,North,0,0.0,0.0,45,0.00,,,0.00,VWS V12.08,2013-02-07 10:12:00,
2013-02-07 05:17:00,45.7,25.6,29.15,North,0,0.0,0.0,45,0.00,,,0.00,VWS V12.08,2013-02-07 10:17:00,
2013-02-07 05:22:00,45.7,25.6,29.15,North,0,0.0,0.0,45,0.00,,,0.00,VWS V12.08,2013-02-07 10:22:00,
2013-02-07 05:27:00,45.9,25.7,29.15,North,0,0.0,0.0,45,0.00,,,0.00,VWS V12.08,2013-02-07 10:27:00,
2013-02-07 05:32:00,45.9,25.7,29.15,North,0,0.0,0.0,45,0.00,,,0.00,VWS V12.08,2013-02-07 10:32:00,
2013-02-07 05:37:00,45.9,25.7,29.15,North,0,0.0,0.0,45,0.00,,,0.00,VWS V12.08,2013-02-07 10:37:00,
2013-02-07 05:42:00,45.5,25.4,29.15,North,0,0.0,0.0,45,0.00,,,0.00,VWS V12.08,2013-02-07 10:42:00,
2013-02-07 05:47:00,45.5,25.4,29.15,North,0,0.0,0.0,45,0.00,,,0.00,VWS V12.08,2013-02-07 10:47:00,
2013-02-07 05:52:00,45.5,25.4,29.15,North,0,0.0,0.0,45,0.00,,,0.00,VWS V12.08,2013-02-07 10:52:00,
2013-02-07 05:57:00,45.3,25.2,29.15,North,0,0.0,0.0,45,0.00,,,0.00,VWS V12.08,2013-02-07 10:57:00,
2013-02-07 06:02:00,45.3,25.2,29.15,North,0,0.0,0.0,45,0.00,,,0.00,VWS V12.08,2013-02-07 11:02:00,
2013-02-07 06:07:00,45.1,25.1,29.15,North,0,0.0,0.0,45,0.00,,,0.00,VWS V12.08,2013-02-07 11:07:00,
2013-02-07 06:12:00,45.1,25.1,29.15,North,0,0.0,0.0,45,0.00,,,0.00,VWS V12.08,2013-02-07 11:12:00,
2013-02-07 06:17:00,45.1,25.1,29.15,North,0,0.0,0.0,45,0.00,,,0.00,VWS V12.08,2013-02-07 11:17:00,
2013-02-07 06:22:00,45.1,25.1,29.15,North,0,0.0,0.0,45,0.00,,,0.00,VWS V12.08,2013-02-07 11:22:00,
2013-02-07 06:27:00,45.3,25.2,29.18,North,0,0.0,0.0,45,0.00,,,0.00,VWS V12.08,2013-02-07 11:27:00,
2013-02-07 06:32:00,45.3,25.2,29.18,North,0,0.0,0.0,45,0.00,,,0.00,VWS V12.08,2013-02-07 11:32:00,
2013-02-07 06:37:00,45.3,25.2,29.18,North,0,0.0,0.0,45,0.00,,,0.00,VWS V12.08,2013-02-07 11:37:00,
2013-02-07 06:42:00,45.1,25.1,29.18,North,0,0.0,0.0,45,0.00,,,0.00,VWS V12.08,2013-02-07 11:42:00,
2013-02-07 06:47:00,45.1,25.1,29.18,North,0,0.0,0.0,45,0.00,,,0.00,VWS V12.08,2013-02-07 11:47:00,
2013-02-07 06:52:00,45.1,25.1,29.18,North,0,0.0,0.0,45,0.00,,,0.00,VWS V12.08,2013-02-07 11:52:00,
2013-02-07 06:57:00,45.1,25.1,29.18,North,0,0.0,0.0,45,0.00,,,0.00,VWS V12.08,2013-02-07 11:57:00,
2013-02-07 07:02:00,45.1,25.1,29.18,North,0,0.0,0.0,45,0.00,,,0.00,VWS V12.08,2013-02-07 12:02:00,
2013-02-07 07:07:00,45.1,25.1,29.15,North,0,0.0,0.0,45,0.00,,,0.00,VWS V12.08,2013-02-07 12:07:00,
2013-02-07 07:12:00,45.0,24.9,29.15,North,0,0.0,0.0,45,0.00,,,0.00,VWS V12.08,2013-02-07 12:12:00,
2013-02-07 07:17:00,45.0,24.9,29.15,North,0,0.0,0.0,45,0.00,,,0.00,VWS V12.08,2013-02-07 12:17:00,
2013-02-07 07:22:00,45.0,24.9,29.15,North,0,0.0,0.0,45,0.00,,,0.00,VWS V12.08,2013-02-07 12:22:00,
2013-02-07 07:27:00,45.0,24.9,29.15,North,0,0.0,0.0,45,0.00,,,0.00,VWS V12.08,2013-02-07 12:27:00,
2013-02-07 07:32:00,45.0,24.9,29.15,North,0,0.0,0.0,45,0.00,,,0.00,VWS V12.08,2013-02-07 12:32:00,
2013-02-07 07:37:00,45.1,25.1,29.15,North,0,0.0,0.0,45,0.00,,,0.00,VWS V12.08,2013-02-07 12:37:00,
2013-02-07 07:42:00,45.1,25.1,29.15,North,0,0.0,0.0,45,0.00,,,0.00,VWS V12.08,2013-02-07 12:42:00,
2013-02-07 07:47:00,44.8,24.8,29.15,North,0,0.0,0.0,45,0.00,,,0.00,VWS V12.08,2013-02-07 12:47:00,
2013-02-07 07:52:00,44.6,24.6,29.15,North,0,0.0,0.0,45,0.00,,,0.00,VWS V12.08,2013-02-07 12:52:00,
2013-02-07 07:57:00,44.8,24.8,29.15,North,0,0.0,0.0,45,0.00,,,0.00,VWS V12.08,2013-02-07 12:57:00,
2013-02-07 08:02:00,44.8,24.8,29.15,North,0,0.0,0.0,45,0.00,,,0.00,VWS V12.08,2013-02-07 13:02:00,
2013-02-07 08:07:00,45.0,24.9,29.15,North,0,0.0,0.0,45,0.00,,,0.00,VWS V12.08,2013-02-07 13:07:00,
2013-02-07 08:12:00,45.0,24.9,29.15,North,0,0.0,0.0,45,0.00,,,0.00,VWS V12.08,2013-02-07 13:12:00,
2013-02-07 08:17:00,45.1,25.1,29.15,North,0,0.0,0.0,45,0.00,,,0.00,VWS V12.08,2013-02-07 13:17:00,
2013-02-07 08:22:00,45.0,24.9,29.15,North,0,0.0,0.0,45,0.00,,,0.00,VWS V12.08,2013-02-07 13:22:00,
2013-02-07 08:27:00,44.8,24.8,29.15,North,0,0.0,0.0,45,0.00,,,0.00,VWS V12.08,2013-02-07 13:27:00,
2013-02-07 08:32:00,44.8,24.8,29.15,North,0,0.0,0.0,45,0.00,,,0.00,VWS V12.08,2013-02-07 13:32:00,
2013-02-07 08:37:00,44.8,24.8,29.15,North,0,0.0,0.0,45,0.00,,,0.00,VWS V12.08,2013-02-07 13:37:00,
2013-02-07 08:42:00,45.0,24.9,29.15,North,0,0.0,0.0,45,0.00,,,0.00,VWS V12.08,2013-02-07 13:42:00,
2013-02-07 08:47:00,45.0,24.9,29.15,North,0,0.0,0.0,45,0.00,,,0.00,VWS V12.08,2013-02-07 13:47:00,
2013-02-07 08:52:00,45.0,24.9,29.15,North,0,0.0,0.0,45,0.00,,,0.00,VWS V12.08,2013-02-07 13:52:00,
2013-02-07 08:57:00,45.0,24.9,29.15,North,0,0.0,0.0,45,0.00,,,0.00,VWS V12.08,2013-02-07 13:57:00,
2013-02-07 09:02:00,45.1,25.1,29.15,North,0,0.0,0.0,45,0.00,,,0.00,VWS V12.08,2013-02-07 14:02:00,
2013-02-07 09:07:00,45.1,25.1,29.15,North,0,0.0,0.0,45,0.00,,,0.00,VWS V12.08,2013-02-07 14:07:00,
2013-02-07 09:12:00,45.1,25.1,29.15,North,0,0.0,0.0,45,0.00,,,0.00,VWS V12.08,2013-02-07 14:12:00,
2013-02-07 09:17:00,45.1,25.1,29.15,North,0,0.0,0.0,45,0.00,,,0.00,VWS V12.08,2013-02-07 14:17:00,
2013-02-07 09:22:00,45.1,25.1,29.15,North,0,0.0,0.0,45,0.00,,,0.00,VWS V12.08,2013-02-07 14:22:00,
2013-02-07 09:27:00,45.3,25.2,29.15,North,0,0.0,0.0,45,0.00,,,0.00,VWS V12.08,2013-02-07 14:27:00,
2013-02-07 09:32:00,45.3,25.2,29.15,North,0,0.0,0.0,45,0.00,,,0.00,VWS V12.08,2013-02-07 14:32:00,
2013-02-07 09:37:00,45.5,25.4,29.15,North,0,0.0,0.0,45,0.00,,,0.00,VWS V12.08,2013-02-07 14:37:00,
2013-02-07 09:42:00,45.7,25.6,29.15,North,0,0.0,0.0,45,0.00,,,0.00,VWS V12.08,2013-02-07 14:42:00,
2013-02-07 09:47:00,45.9,25.7,29.15,North,0,0.0,0.0,45,0.00,,,0.00,VWS V12.08,2013-02-07 14:47:00,
2013-02-07 09:52:00,45.9,25.7,29.15,North,0,0.0,0.0,45,0.00,,,0.00,VWS V12.08,2013-02-07 14:52:00,
2013-02-07 09:57:00,45.9,25.7,29.15,North,0,0.0,0.0,45,0.00,,,0.00,VWS V12.08,2013-02-07 14:57:00,
2013-02-07 10:02:00,46.0,25.9,29.15,North,0,0.0,0.0,45,0.00,,,0.00,VWS V12.08,2013-02-07 15:02:00,
2013-02-07 10:07:00,46.0,25.9,29.15,North,0,0.0,0.0,45,0.00,,,0.00,VWS V12.08,2013-02-07 15:07:00,
2013-02-07 10:12:00,46.2,26.1,29.15,North,0,0.0,0.0,45,0.00,,,0.00,VWS V12.08,2013-02-07 15:12:00,
2013-02-07 10:17:00,46.2,26.1,29.15,North,0,0.0,0.0,45,0.00,,,0.00,VWS V12.08,2013-02-07 15:17:00,
2013-02-07 10:22:00,46.2,26.1,29.15,North,0,0.0,0.0,45,0.00,,,0.00,VWS V12.08,2013-02-07 15:22:00,
2013-02-07 10:27:00,46.2,26.1,29.15,North,0,0.0,0.0,45,0.00,,,0.00,VWS V12.08,2013-02-07 15:27:00,
2013-02-07 10:32:00,46.4,25.1,29.15,North,0,0.0,0.0,43,0.00,,,0.00,VWS V12.08,2013-02-07 15:32:00,
2013-02-07 10:37:00,46.4,25.1,29.15,North,0,0.0,0.0,43,0.00,,,0.00,VWS V12.08,2013-02-07 15:37:00,
2013-02-07 10:42:00,46.6,25.3,29.15,North,0,0.0,0.0,43,0.00,,,0.00,VWS V12.08,2013-02-07 15:42:00,
2013-02-07 10:47:00,46.8,25.5,29.15,North,0,0.0,0.0,43,0.00,,,0.00,VWS V12.08,2013-02-07 15:47:00,
2013-02-07 10:52:00,46.8,25.5,29.12,North,0,0.0,0.0,43,0.00,,,0.00,VWS V12.08,2013-02-07 15:52:00,
2013-02-07 10:57:00,46.9,25.6,29.12,North,0,0.0,0.0,43,0.00,,,0.00,VWS V12.08,2013-02-07 15:57:00,
2013-02-07 11:02:00,47.1,25.8,29.12,North,0,0.0,0.0,43,0.00,,,0.00,VWS V12.08,2013-02-07 16:02:00,
2013-02-07 11:07:00,47.1,25.8,29.12,North,0,0.0,0.0,43,0.00,,,0.00,VWS V12.08,2013-02-07 16:07:00,
2013-02-07 11:12:00,47.3,26.0,29.12,North,0,0.0,0.0,43,0.00,,,0.00,VWS V12.08,2013-02-07 16:12:00,
2013-02-07 11:17:00,47.3,26.0,29.12,North,0,0.0,0.0,43,0.00,,,0.00,VWS V12.08,2013-02-07 16:17:00,
2013-02-07 11:22:00,47.5,26.1,29.12,North,0,0.0,0.0,43,0.00,,,0.00,VWS V12.08,2013-02-07 16:22:00,
2013-02-07 11:27:00,47.7,26.3,29.12,North,0,0.0,0.0,43,0.00,,,0.00,VWS V12.08,2013-02-07 16:27:00,
2013-02-07 11:32:00,47.8,26.4,29.12,North,0,0.0,0.0,43,0.00,,,0.00,VWS V12.08,2013-02-07 16:32:00,
2013-02-07 11:37:00,48.0,26.6,29.12,North,0,0.0,0.0,43,0.00,,,0.00,VWS V12.08,2013-02-07 16:37:00,
2013-02-07 11:42:00,48.2,26.8,29.12,North,0,0.0,0.0,43,0.00,,,0.00,VWS V12.08,2013-02-07 16:42:00,
2013-02-07 11:47:00,48.4,26.9,29.12,North,0,0.0,0.0,43,0.00,,,0.00,VWS V12.08,2013-02-07 16:47:00,
2013-02-07 11:52:00,48.6,27.1,29.12,North,0,0.0,0.0,43,0.00,,,0.00,VWS V12.08,2013-02-07 16:52:00,
2013-02-07 11:57:00,48.7,27.3,29.12,North,0,0.0,0.0,43,0.00,,,0.00,VWS V12.08,2013-02-07 16:57:00,
2013-02-07 12:02:00,48.7,27.3,29.12,North,0,0.0,0.0,43,0.00,,,0.00,VWS V12.08,2013-02-07 17:02:00,
2013-02-07 12:07:00,48.9,27.4,29.12,North,0,0.0,0.0,43,0.00,,,0.00,VWS V12.08,2013-02-07 17:07:00,
2013-02-07 12:12:00,48.9,27.4,29.12,North,0,0.0,0.0,43,0.00,,,0.00,VWS V12.08,2013-02-07 17:12:00,
2013-02-07 12:17:00,49.1,27.6,29.12,North,0,0.0,0.0,43,0.00,,,0.00,VWS V12.08,2013-02-07 17:17:00,
2013-02-07 12:22:00,49.3,27.8,29.09,North,0,0.0,0.0,43,0.00,,,0.00,VWS V12.08,2013-02-07 17:22:00,
2013-02-07 12:27:00,49.5,27.9,29.09,North,0,0.0,0.0,43,0.00,,,0.00,VWS V12.08,2013-02-07 17:27:00,
2013-02-07 12:32:00,49.8,28.2,29.09,North,0,0.0,0.0,43,0.00,,,0.00,VWS V12.08,2013-02-07 17:32:00,
2013-02-07 12:37:00,50.0,28.4,29.09,North,0,0.0,0.0,43,0.00,,,0.00,VWS V12.08,2013-02-07 17:37:00,
2013-02-07 12:42:00,50.4,28.7,29.09,North,0,0.0,0.0,43,0.00,,,0.00,VWS V12.08,2013-02-07 17:42:00,
2013-02-07 12:47:00,50.5,28.9,29.09,North,0,0.0,0.0,43,0.00,,,0.00,VWS V12.08,2013-02-07 17:47:00,
2013-02-07 12:52:00,50.9,29.2,29.09,North,0,0.0,0.0,43,0.00,,,0.00,VWS V12.08,2013-02-07 17:52:00,
2013-02-07 12:57:00,50.9,29.2,29.09,North,0,0.0,0.0,43,0.00,,,0.00,VWS V12.08,2013-02-07 17:57:00,
2013-02-07 13:02:00,51.1,29.4,29.09,North,0,0.0,0.0,43,0.00,,,0.00,VWS V12.08,2013-02-07 18:02:00,
2013-02-07 13:07:00,51.1,29.4,29.06,North,0,0.0,0.0,43,0.00,,,0.00,VWS V12.08,2013-02-07 18:07:00,
2013-02-07 13:12:00,51.3,29.5,29.06,North,0,0.0,0.0,43,0.00,,,0.00,VWS V12.08,2013-02-07 18:12:00,
2013-02-07 13:17:00,51.3,29.5,29.06,North,0,0.0,0.0,43,0.00,,,0.00,VWS V12.08,2013-02-07 18:17:00,
2013-02-07 13:22:00,51.6,29.9,29.06,North,0,0.0,0.0,43,0.00,,,0.00,VWS V12.08,2013-02-07 18:22:00,
2013-02-07 13:27:00,51.6,29.9,29.06,North,0,0.0,0.0,43,0.00,,,0.00,VWS V12.08,2013-02-07 18:27:00,
2013-02-07 13:32:00,51.8,28.9,29.06,North,0,0.0,0.0,41,0.00,,,0.00,VWS V12.08,2013-02-07 18:32:00,
2013-02-07 13:37:00,52.0,29.0,29.06,North,0,0.0,0.0,41,0.00,,,0.00,VWS V12.08,2013-02-07 18:37:00,
2013-02-07 13:42:00,52.2,29.2,29.06,North,0,0.0,0.0,41,0.00,,,0.00,VWS V12.08,2013-02-07 18:42:00,
2013-02-07 13:47:00,52.2,29.2,29.06,North,0,0.0,0.0,41,0.00,,,0.00,VWS V12.08,2013-02-07 18:47:00,
2013-02-07 13:52:00,52.3,29.4,29.06,North,0,0.0,0.0,41,0.00,,,0.00,VWS V12.08,2013-02-07 18:52:00,
2013-02-07 13:57:00,52.5,29.5,29.06,North,0,0.0,0.0,41,0.00,,,0.00,VWS V12.08,2013-02-07 18:57:00,
2013-02-07 14:02:00,52.5,29.5,29.06,North,0,0.0,0.0,41,0.00,,,0.00,VWS V12.08,2013-02-07 19:02:00,
2013-02-07 14:07:00,52.5,29.5,29.06,North,0,0.0,0.0,41,0.00,,,0.00,VWS V12.08,2013-02-07 19:07:00,
2013-02-07 14:12:00,52.7,29.7,29.06,North,0,0.0,0.0,41,0.00,,,0.00,VWS V12.08,2013-02-07 19:12:00,
2013-02-07 14:17:00,52.9,29.8,29.06,North,0,0.0,0.0,41,0.00,,,0.00,VWS V12.08,2013-02-07 19:17:00,
2013-02-07 14:22:00,52.9,29.8,29.03,North,0,0.0,0.0,41,0.00,,,0.00,VWS V12.08,2013-02-07 19:22:00,
2013-02-07 14:27:00,52.9,29.8,29.03,North,0,0.0,0.0,41,0.00,,,0.00,VWS V12.08,2013-02-07 19:27:00,
2013-02-07 14:32:00,52.7,29.7,29.03,North,0,0.0,0.0,41,0.00,,,0.00,VWS V12.08,2013-02-07 19:32:00,
2013-02-07 14:37:00,52.9,29.8,29.03,North,0,0.0,0.0,41,0.00,,,0.00,VWS V12.08,2013-02-07 19:37:00,
2013-02-07 14:42:00,52.9,29.8,29.03,North,0,0.0,0.0,41,0.00,,,0.00,VWS V12.08,2013-02-07 19:42:00,
2013-02-07 14:47:00,52.9,29.8,29.03,North,0,0.0,0.0,41,0.00,,,0.00,VWS V12.08,2013-02-07 19:47:00,
2013-02-07 14:52:00,52.9,29.8,29.03,North,0,0.0,0.0,41,0.00,,,0.00,VWS V12.08,2013-02-07 19:52:00,
2013-02-07 14:57:00,52.9,29.8,29.03,North,0,0.0,0.0,41,0.00,,,0.00,VWS V12.08,2013-02-07 19:57:00,
2013-02-07 15:02:00,52.9,29.8,29.03,North,0,0.0,0.0,41,0.00,,,0.00,VWS V12.08,2013-02-07 20:02:00,
2013-02-07 15:07:00,52.9,29.8,29.03,North,0,0.0,0.0,41,0.00,,,0.00,VWS V12.08,2013-02-07 20:07:00,
2013-02-07 15:12:00,52.9,29.8,29.03,North,0,0.0,0.0,41,0.00,,,0.00,VWS V12.08,2013-02-07 20:12:00,
2013-02-07 15:17:00,52.9,29.8,29.03,North,0,0.0,0.0,41,0.00,,,0.00,VWS V12.08,2013-02-07 20:17:00,
2013-02-07 15:22:00,52.7,29.7,29.03,North,0,0.0,0.0,41,0.00,,,0.00,VWS V12.08,2013-02-07 20:22:00,
2013-02-07 15:27:00,52.7,29.7,29.03,North,0,0.0,0.0,41,0.00,,,0.00,VWS V12.08,2013-02-07 20:27:00,
2013-02-07 15:32:00,52.5,29.5,29.03,North,0,0.0,0.0,41,0.00,,,0.00,VWS V12.08,2013-02-07 20:32:00,
2013-02-07 15:37:00,52.5,29.5,29.03,North,0,0.0,0.0,41,0.00,,,0.00,VWS V12.08,2013-02-07 20:37:00,
2013-02-07 15:42:00,52.2,29.2,29.03,North,0,0.0,0.0,41,0.00,,,0.00,VWS V12.08,2013-02-07 20:42:00,
2013-02-07 15:47:00,51.6,29.9,29.03,North,0,0.0,0.0,43,0.00,,,0.00,VWS V12.08,2013-02-07 20:47:00,
2013-02-07 15:52:00,51.1,31.6,29.03,North,0,0.0,0.0,47,0.00,,,0.00,VWS V12.08,2013-02-07 20:52:00,
2013-02-07 15:57:00,50.5,31.1,29.03,North,0,0.0,0.0,47,0.00,,,0.00,VWS V12.08,2013-02-07 20:57:00,
2013-02-07 16:02:00,50.4,30.9,29.03,North,0,0.0,0.0,47,0.00,,,0.00,VWS V12.08,2013-02-07 21:02:00,
2013-02-07 16:07:00,50.4,30.9,29.03,North,0,0.0,0.0,47,0.00,,,0.00,VWS V12.08,2013-02-07 21:07:00,
2013-02-07 16:12:00,50.2,33.7,29.03,North,0,0.0,0.0,53,0.00,,,0.00,VWS V12.08,2013-02-07 21:12:00,
2013-02-07 16:17:00,50.2,33.7,29.03,North,0,0.0,0.0,53,0.00,,,0.00,VWS V12.08,2013-02-07 21:17:00,
2013-02-07 16:22:00,50.2,35.5,29.03,North,0,0.0,0.0,57,0.00,,,0.00,VWS V12.08,2013-02-07 21:22:00,
2013-02-07 16:27:00,49.8,36.1,29.03,North,0,0.0,0.0,59,0.00,,,0.00,VWS V12.08,2013-02-07 21:27:00,
2013-02-07 16:32:00,49.8,36.1,29.03,North,0,0.0,0.0,59,0.00,,,0.00,VWS V12.08,2013-02-07 21:32:00,
2013-02-07 16:37:00,49.8,36.9,29.03,North,0,0.0,0.0,61,0.00,,,0.00,VWS V12.08,2013-02-07 21:37:00,
2013-02-07 16:42:00,49.5,37.4,29.03,North,0,0.0,0.0,63,0.00,,,0.00,VWS V12.08,2013-02-07 21:42:00,
2013-02-07 16:47:00,49.5,38.2,29.03,North,0,0.0,0.0,65,0.00,,,0.00,VWS V12.08,2013-02-07 21:47:00,
2013-02-07 16:52:00,49.5,39.7,29.03,North,0,0.0,0.0,69,0.00,,,0.00,VWS V12.08,2013-02-07 21:52:00,
2013-02-07 16:57:00,49.1,39.4,29.03,North,0,0.0,0.0,69,0.00,,,0.00,VWS V12.08,2013-02-07 21:57:00,
2013-02-07 17:03:00,49.1,41.5,29.03,North,0,0.0,0.0,75,0.00,,,0.00,VWS V12.08,2013-02-07 22:03:00,
2013-02-07 17:08:00,49.1,40.8,29.03,North,0,0.0,0.0,73,0.00,,,0.00,VWS V12.08,2013-02-07 22:08:00,
2013-02-07 17:13:00,49.3,41.7,29.00,North,0,0.0,0.0,75,0.00,,,0.00,VWS V12.08,2013-02-07 22:13:00,
2013-02-07 17:18:00,49.5,42.6,29.00,North,0,0.0,0.0,77,0.00,,,0.00,VWS V12.08,2013-02-07 22:18:00,
2013-02-07 17:23:00,49.5,42.6,29.00,North,0,0.0,0.0,77,0.00,,,0.00,VWS V12.08,2013-02-07 22:23:00,
2013-02-07 17:28:00,49.5,42.6,29.03,North,0,0.0,0.0,77,0.00,,,0.00,VWS V12.08,2013-02-07 22:28:00,
2013-02-07 17:33:00,49.5,41.9,29.03,North,0,0.0,0.0,75,0.00,,,0.00,VWS V12.08,2013-02-07 22:33:00,
2013-02-07 17:38:00,49.5,41.9,29.03,North,0,0.0,0.0,75,0.00,,,0.00,VWS V12.08,2013-02-07 22:38:00,
2013-02-07 17:43:00,49.5,41.9,29.03,North,0,0.0,0.0,75,0.00,,,0.00,VWS V12.08,2013-02-07 22:43:00,
2013-02-07 17:48:00,49.1,41.5,29.03,North,0,0.0,0.0,75,0.00,,,0.00,VWS V12.08,2013-02-07 22:48:00,
2013-02-07 17:53:00,48.9,41.4,29.03,North,0,0.0,0.0,75,0.00,,,0.00,VWS V12.08,2013-02-07 22:53:00,
2013-02-07 17:58:00,48.9,41.4,29.03,North,0,0.0,0.0,75,0.00,,,0.00,VWS V12.08,2013-02-07 22:58:00,
2013-02-07 18:03:00,48.9,42.7,29.03,North,0,0.0,0.0,79,0.00,,,0.00,VWS V12.08,2013-02-07 23:03:00,
2013-02-07 18:08:00,48.6,43.0,29.03,North,0,0.0,0.0,81,0.00,,,0.00,VWS V12.08,2013-02-07 23:08:00,
2013-02-07 18:13:00,48.4,43.5,29.03,North,0,0.0,0.0,83,0.00,,,0.00,VWS V12.08,2013-02-07 23:13:00,
2013-02-07 18:18:00,48.4,43.5,29.03,North,0,0.0,0.0,83,0.00,,,0.00,VWS V12.08,2013-02-07 23:18:00,
2013-02-07 18:23:00,48.2,43.3,29.03,North,0,0.0,0.0,83,0.00,,,0.00,VWS V12.08,2013-02-07 23:23:00,
2013-02-07 18:28:00,48.2,43.9,29.03,North,0,0.0,0.0,85,0.00,,,0.00,VWS V12.08,2013-02-07 23:28:00,
2013-02-07 18:33:00,48.4,44.1,29.03,North,0,0.0,0.0,85,0.00,,,0.00,VWS V12.08,2013-02-07 23:33:00,
2013-02-07 18:38:00,48.4,44.1,29.03,North,0,0.0,0.0,85,0.00,,,0.00,VWS V12.08,2013-02-07 23:38:00,
2013-02-07 18:43:00,48.6,43.6,29.03,North,0,0.0,0.0,83,0.00,,,0.00,VWS V12.08,2013-02-07 23:43:00,
2013-02-07 18:48:00,48.6,43.6,29.03,North,0,0.0,0.0,83,0.00,,,0.00,VWS V12.08,2013-02-07 23:48:00,
2013-02-07 18:53:00,48.4,43.5,29.00,North,0,0.0,0.0,83,0.00,,,0.00,VWS V12.08,2013-02-07 23:53:00,
2013-02-07 18:58:00,48.4,43.5,29.00,North,0,0.0,0.0,83,0.00,,,0.00,VWS V12.08,2013-02-07 23:58:00,
2013-02-07 19:03:00,48.4,43.5,29.00,North,0,0.0,0.0,83,0.00,,,0.00,VWS V12.08,2013-02-08 00:03:00,
2013-02-07 19:08:00,48.4,43.5,29.00,North,0,0.0,0.0,83,0.00,,,0.00,VWS V12.08,2013-02-08 00:08:00,
2013-02-07 19:13:00,48.4,43.5,29.00,North,0,0.0,0.0,83,0.00,,,0.00,VWS V12.08,2013-02-08 00:13:00,
2013-02-07 19:18:00,48.2,43.9,29.00,North,0,0.0,0.0,85,0.00,,,0.00,VWS V12.08,2013-02-08 00:18:00,
2013-02-07 19:23:00,48.2,43.9,29.03,North,0,0.0,0.0,85,0.00,,,0.00,VWS V12.08,2013-02-08 00:23:00,
2013-02-07 19:28:00,48.0,43.7,29.03,North,0,0.0,0.0,85,0.00,,,0.00,VWS V12.08,2013-02-08 00:28:00,
2013-02-07 19:33:00,48.0,43.7,29.03,North,0,0.0,0.0,85,0.00,,,0.00,VWS V12.08,2013-02-08 00:33:00,
2013-02-07 19:38:00,48.0,43.7,29.03,North,0,0.0,0.0,85,0.00,,,0.00,VWS V12.08,2013-02-08 00:38:00,
2013-02-07 19:43:00,48.0,44.3,29.03,North,0,0.0,0.0,87,0.00,,,0.00,VWS V12.08,2013-02-08 00:43:00,
2013-02-07 19:48:00,48.0,44.3,29.03,North,0,0.0,0.0,87,0.00,,,0.00,VWS V12.08,2013-02-08 00:48:00,
2013-02-07 19:53:00,48.0,43.7,29.03,North,0,0.0,0.0,85,0.00,,,0.00,VWS V12.08,2013-02-08 00:53:00,
2013-02-07 19:58:00,48.0,43.7,29.03,North,0,0.0,0.0,85,0.00,,,0.00,VWS V12.08,2013-02-08 00:58:00,
2013-02-07 20:03:00,48.0,43.7,29.03,North,0,0.0,0.0,85,0.00,,,0.00,VWS V12.08,2013-02-08 01:03:00,
2013-02-07 20:08:00,48.0,43.7,29.03,North,0,0.0,0.0,85,0.00,,,0.00,VWS V12.08,2013-02-08 01:08:00,
2013-02-07 20:13:00,48.0,43.7,29.03,North,0,0.0,0.0,85,0.00,,,0.00,VWS V12.08,2013-02-08 01:13:00,
2013-02-07 20:18:00,47.8,43.6,29.03,North,0,0.0,0.0,85,0.00,,,0.00,VWS V12.08,2013-02-08 01:18:00,
2013-02-07 20:23:00,47.8,43.6,29.03,North,0,0.0,0.0,85,0.00,,,0.00,VWS V12.08,2013-02-08 01:23:00,
2013-02-07 20:28:00,47.8,43.6,29.03,North,0,0.0,0.0,85,0.00,,,0.00,VWS V12.08,2013-02-08 01:28:00,
2013-02-07 20:33:00,47.8,43.6,29.03,North,0,0.0,0.0,85,0.00,,,0.00,VWS V12.08,2013-02-08 01:33:00,
2013-02-07 20:38:00,47.8,43.6,29.00,North,0,0.0,0.0,85,0.00,,,0.00,VWS V12.08,2013-02-08 01:38:00,
2013-02-07 20:43:00,47.8,43.6,29.00,North,0,0.0,0.0,85,0.00,,,0.00,VWS V12.08,2013-02-08 01:43:00,
2013-02-07 20:48:00,47.8,44.2,29.00,North,0,0.0,0.0,87,0.00,,,0.00,VWS V12.08,2013-02-08 01:48:00,
2013-02-07 20:53:00,47.8,44.2,29.00,North,0,0.0,0.0,87,0.00,,,0.00,VWS V12.08,2013-02-08 01:53:00,
2013-02-07 20:58:00,47.7,44.0,29.00,North,0,0.0,0.0,87,0.00,,,0.00,VWS V12.08,2013-02-08 01:58:00,
2013-02-07 21:03:00,47.8,44.2,29.00,North,0,0.0,0.0,87,0.00,,,0.00,VWS V12.08,2013-02-08 02:03:00,
2013-02-07 21:08:00,47.8,43.6,29.00,North,0,0.0,0.0,85,0.00,,,0.00,VWS V12.08,2013-02-08 02:08:00,
2013-02-07 21:13:00,47.7,43.4,29.00,North,0,0.0,0.0,85,0.00,,,0.00,VWS V12.08,2013-02-08 02:13:00,
2013-02-07 21:18:00,47.7,43.4,29.00,North,0,0.0,0.0,85,0.00,,,0.00,VWS V12.08,2013-02-08 02:18:00,
2013-02-07 21:23:00,47.7,44.0,29.00,North,0,0.0,0.0,87,0.00,,,0.00,VWS V12.08,2013-02-08 02:23:00,
2013-02-07 21:28:00,47.3,43.6,29.00,North,0,0.0,0.0,87,0.00,,,0.00,VWS V12.08,2013-02-08 02:28:00,
2013-02-07 21:33:00,47.3,43.6,29.00,North,0,0.0,0.0,87,0.00,,,0.00,VWS V12.08,2013-02-08 02:33:00,
2013-02-07 21:38:00,47.5,43.8,29.00,North,0,0.0,0.0,87,0.00,,,0.00,VWS V12.08,2013-02-08 02:38:00,
2013-02-07 21:43:00,47.5,43.8,29.00,North,0,0.0,0.0,87,0.00,,,0.00,VWS V12.08,2013-02-08 02:43:00,
2013-02-07 21:48:00,47.5,43.8,29.00,North,0,0.0,0.0,87,0.00,,,0.00,VWS V12.08,2013-02-08 02:48:00,
2013-02-07 21:53:00,47.5,43.2,29.00,North,0,0.0,0.0,85,0.00,,,0.00,VWS V12.08,2013-02-08 02:53:00,
2013-02-07 21:58:00,47.5,43.2,29.00,North,0,0.0,0.0,85,0.00,,,0.00,VWS V12.08,2013-02-08 02:58:00,
2013-02-07 22:03:00,47.5,42.6,29.00,North,0,0.0,0.0,83,0.00,,,0.00,VWS V12.08,2013-02-08 03:03:00,
2013-02-07 22:08:00,47.5,42.6,29.00,North,0,0.0,0.0,83,0.00,,,0.00,VWS V12.08,2013-02-08 03:08:00,
2013-02-07 22:13:00,47.5,42.6,29.00,North,0,0.0,0.0,83,0.00,,,0.00,VWS V12.08,2013-02-08 03:13:00,
2013-02-07 22:18:00,47.5,42.6,29.00,North,0,0.0,0.0,83,0.00,,,0.00,VWS V12.08,2013-02-08 03:18:00,
2013-02-07 22:23:00,47.7,42.8,29.00,North,0,0.0,0.0,83,0.00,,,0.00,VWS V12.08,2013-02-08 03:23:00,
2013-02-07 22:29:00,48.0,43.1,29.00,North,0,0.0,0.0,83,0.00,,,0.00,VWS V12.08,2013-02-08 03:29:00,
2013-02-07 22:34:00,48.0,43.1,29.00,North,0,0.0,0.0,83,0.00,,,0.00,VWS V12.08,2013-02-08 03:34:00,
2013-02-07 22:39:00,47.8,42.9,29.00,North,0,0.0,0.0,83,0.00,,,0.00,VWS V12.08,2013-02-08 03:39:00,
2013-02-07 22:44:00,47.8,42.9,29.00,North,0,0.0,0.0,83,0.00,,,0.00,VWS V12.08,2013-02-08 03:44:00,
2013-02-07 22:49:00,47.8,42.9,29.00,North,0,0.0,0.0,83,0.00,,,0.00,VWS V12.08,2013-02-08 03:49:00,
2013-02-07 22:54:00,47.8,42.9,29.00,North,0,0.0,0.0,83,0.00,,,0.00,VWS V12.08,2013-02-08 03:54:00,
2013-02-07 22:59:00,47.7,42.8,29.00,North,0,0.0,0.0,83,0.00,,,0.00,VWS V12.08,2013-02-08 03:59:00,
2013-02-07 23:04:00,47.5,42.0,29.00,North,0,0.0,0.0,81,0.00,,,0.00,VWS V12.08,2013-02-08 04:04:00,
2013-02-07 23:09:00,47.5,42.0,29.00,North,0,0.0,0.0,81,0.00,,,0.00,VWS V12.08,2013-02-08 04:09:00,
2013-02-07 23:14:00,47.3,41.8,29.00,North,0,0.0,0.0,81,0.00,,,0.00,VWS V12.08,2013-02-08 04:14:00,
2013-02-07 23:19:00,47.1,41.6,29.00,North,0,0.0,0.0,81,0.00,,,0.00,VWS V12.08,2013-02-08 04:19:00,
2013-02-07 23:24:00,47.3,41.8,29.00,North,0,0.0,0.0,81,0.00,,,0.00,VWS V12.08,2013-02-08 04:24:00,
2013-02-07 23:29:00,47.1,42.2,29.00,North,0,0.0,0.0,83,0.00,,,0.00,VWS V12.08,2013-02-08 04:29:00,
2013-02-07 23:34:00,47.1,42.2,29.00,North,0,0.0,0.0,83,0.00,,,0.00,VWS V12.08,2013-02-08 04:34:00,
2013-02-07 23:39:00,47.1,42.2,29.00,North,0,0.0,0.0,83,0.00,,,0.00,VWS V12.08,2013-02-08 04:39:00,
2013-02-07 23:44:00,47.1,42.2,29.00,North,0,0.0,0.0,83,0.00,,,0.00,VWS V12.08,2013-02-08 04:44:00,
2013-02-07 23:49:00,47.3,42.4,29.00,North,0,0.0,0.0,83,0.00,,,0.00,VWS V12.08,2013-02-08 04:49:00,
2013-02-07 23:54:00,47.3,42.4,29.00,North,0,0.0,0.0,83,0.00,,,0.00,VWS V12.08,2013-02-08 04:54:00,
2013-02-07 23:59:00,47.3,42.4,29.00,North,0,0.0,0.0,83,0.00,,,0.00,VWS V12.08,2013-02-08 04:59:00,